Flag for Brazil Weather past 2 weeks in Brasilia, Distrito Federal, Brazil

Now
61 °F

Clear.


Feels Like: 61 °F
Forecast: 58 / 77 °F
Wind: No wind

Location: Brasilia Aeroporto

Current Time: May 28, 2015 at 1:50:58 AM

Latest Report: May 28, 2015 at 1:00 AM


Visibility: 10 mi

Pressure: 30.15 "Hg

Humidity: 83%

Dew point: 55 °F

Location of BrasiliaLocation

Historic Weather in Brasilia — Graph

°F

Brasilia temperature yesterday

Maximum temperature yesterday: 81 °F (at 2:00 PM)
Minimum temperature yesterday: 55 °F (at 5:00 AM)
Average temperature yesterday: 68 °F

Past Weeks' High & Low Weather Summary

 TemperatureHumidityPressure
High81 °F (May 27, 2:00 PM)100% (May 17, 3:00 AM)30.30 "Hg (May 17, 3:00 AM)
Low54 °F (May 26, 6:00 AM)32% (May 27, 4:00 PM)30.07 "Hg (May 26, 4:00 PM)
Average67 °F73%30.18 "Hg
* Reported May 13 1:00 AM — May 28 1:00 AM, Brasilia, Weather by CustomWeather, © 2015

Note: Actual official high and low records may vary slightly from our data, if they occured in-between our weather recording intervals... More about our weather records

Advertising

Brasilia weather history for previous 24 hours

 ConditionsComfort  
Time TempWeatherWind HumidityBarometerVisibility
1:00 AM
Thu, May 28
61 °FClear.No wind83%30.15 "Hg10 mi
12:00 AM64 °FClear.2 mph73%30.15 "Hg10 mi
11:00 PM
Wed, May 27
64 °FClear.5 mph73%30.15 "Hg10 mi
10:00 PM68 °FClear.No wind60%30.15 "Hg10 mi
9:00 PM68 °FClear.No wind60%30.12 "Hg10 mi
8:00 PM72 °FClear.5 mph53%30.12 "Hg10 mi
7:00 PM75 °FPassing clouds.3 mph44%30.12 "HgN/A
6:00 PM75 °FPassing clouds.3 mph44%30.09 "HgN/A
5:00 PM79 °FPassing clouds.6 mph37%30.09 "HgN/A
4:00 PM81 °FPassing clouds.6 mph32%30.07 "HgN/A
3:00 PM81 °FPassing clouds.6 mph34%30.07 "HgN/A
2:00 PM81 °FPassing clouds.6 mph34%30.09 "HgN/A
1:00 PM79 °FPassing clouds.7 mph42%30.12 "HgN/A
12:00 PM77 °FSunny.10 mph47%30.12 "Hg10 mi
11:00 AM77 °FSunny.8 mph47%30.15 "Hg10 mi
10:00 AM73 °FSunny.6 mph57%30.18 "Hg10 mi
9:00 AM70 °FSunny.3 mph69%30.15 "Hg10 mi
8:00 AM64 °FSunny.No wind88%30.15 "Hg10 mi
7:00 AM55 °FSunny.No wind88%30.12 "Hg10 mi
6:00 AM57 °FClear.No wind82%30.09 "Hg10 mi
5:00 AM55 °FClear.No wind94%30.09 "Hg10 mi
4:00 AM57 °FClear.No wind88%30.09 "Hg10 mi
3:00 AM57 °FClear.No wind88%30.09 "Hg10 mi
2:00 AM59 °FClear.No wind94%30.09 "Hg10 mi
1:00 AM59 °FClear.3 mph94%30.12 "Hg10 mi
Weather by CustomWeather, © 2015

See weather overviewHow to use our weather pages